Location: Penticton
(49.5000°N, 119.5830°W)
Time: 06:55:01
(UTC-07:00)

Daily predictions for brighter satellites

Satellite Brightness Start Highest point End
(mag) Time Altitude Azimuth Time Altitude Azimuth Time Altitude Azimuth
Iridium 81 4.2 21:50:44 10° SSE 21:53:17 51° E 21:56:21 10° NNE
USA 215 4.4 21:48:02 10° SSE 21:53:54 34° SW 21:59:46 10° WNW
CENTAUR R/B 3.7 21:50:09 10° NW 21:57:35 53° NE 22:05:47 10° ESE
Cosmos 1315 Rocket 3.9 21:53:49 10° SSW 21:57:47 50° WNW 22:01:50 10° N
SL-8 R/B 4.0 21:54:06 10° SW 21:58:41 44° SSE 22:03:17 10° E
Cosmos 1461 4.3 21:55:41 10° SSE 21:59:26 24° ESE 22:03:15 10° ENE
NOSS 3-4 (A) 4.3 21:58:46 10° S 22:03:58 29° ESE 22:09:21 10° ENE
NOSS 3-4 (C) 4.3 21:58:53 10° S 22:04:04 29° ESE 22:09:25 10° ENE
CZ-2C R/B 4.1 22:01:06 10° SE 22:06:25 39° ENE 22:11:39 10° N
ARGOS 3.9 22:01:45 10° S 22:07:03 53° W 22:12:22 10° NNW
Cosmos 2278 Rocket 2.9 22:03:08 10° S 22:08:11 34° ESE 22:13:15 10° NE
APEX 2.9 22:08:20 10° NNW 22:11:21 76° WSW 22:14:55 10° SSE
IGS 5A 4.0 22:09:47 10° SE 22:13:45 46° ENE 22:17:45 10° N
Cosmos 220 Rocket 4.2 22:10:07 10° S 22:14:11 49° ESE 22:18:17 10° NNE
Meteor 1-21 Rocket 4.5 22:13:49 10° S 22:19:32 57° E 22:25:11 10° NNE
KORONAS-FOTON 3.9 22:17:26 10° SSW 22:21:21 82° W 22:25:19 10° N
Meteor 2-13 Rocket 4.5 22:15:27 10° N 22:21:34 83° E 22:27:40 10° SSE
Cosmos 1745 Rocket 4.1 22:15:33 10° N 22:21:55 89° E 22:28:12 10° S
COSMOS 2406 3.9 22:16:56 10° NW 22:22:30 51° WSW 22:28:02 10° S
SL-14 R/B 3.6 22:20:25 10° SSE 22:24:09 48° E 22:27:59 10° NNE
Cosmos 1844 Rocket 3.1 22:18:48 10° SW 22:24:28 71° WNW 22:30:08 10° NNE
CARTOSAT-1 3.8 22:21:01 12° SSE 22:25:00 59° ENE 22:29:17 10° N
SPOT 5 3.2 22:25:07 10° S 22:30:16 77° WSW 22:35:38 10° NNW
SL-27 R/B 3.8 22:27:42 10° N 22:30:59 30° ENE 22:33:50 12° ESE
Cosmos 1844 3.9 22:25:32 10° SSW 22:31:15 79° WNW 22:37:05 10° NNE
Cosmos 807 4.2 22:29:28 11° S 22:32:23 68° E 22:35:51 10° NNE
Cosmos 1076 Rocket 4.3 22:32:29 14° SSE 22:35:42 34° E 22:39:33 10° NNE
Lacrosse 5 2.5 22:32:03 10° WSW 22:37:04 61° NNW 22:42:07 10° NE
ATLAS 5 CENTAUR R/B 2.5 22:37:21 10° S 22:41:17 30° ESE 22:45:36 10° ENE
ATLAS 3B R/B 3.3 22:35:19 10° NW 22:41:35 45° WSW 22:47:22 12° S
Helios 1B rocket 2.5 22:38:28 10° NNE 22:42:34 60° ESE 22:46:23 11° S
Cosmos 1626 2.7 22:40:50 16° SSE 22:43:30 40° E 22:47:01 10° NNE
Helios 1A 3.6 22:41:42 10° S 22:45:46 53° W 22:49:55 10° NNW
SPOT 1/Viking Rocket 4.0 22:41:30 10° S 22:46:33 58° WSW 22:51:40 10° NNW
H-2A R/B 3.7 22:42:12 10° SSW 22:46:53 31° W 22:51:41 10° NNW
Cosmos 1340 4.2 22:44:48 10° NNW 22:48:13 32° W 22:51:37 10° SSW
Cosmos 1842 Rocket 4.4 22:44:57 10° NNW 22:49:06 45° W 22:53:15 10° SSW
Cosmos 2082 Rocket 2.3 22:46:19 10° NNW 22:52:05 73° ENE 22:56:41 16° SE
Cosmos 1833 Rocket 2.7 22:46:51 10° NNW 22:52:31 81° ENE 22:57:01 16° SSE
Iridium 67 2.6 22:52:04 10° N 22:53:38 51° E 22:53:40 51° E
S3M 4.4 22:47:34 10° SSW 22:53:54 66° WNW 23:00:18 10° N
Cosmos 1709 Rocket 4.0 22:48:55 10° N 22:55:12 82° E 23:00:25 15° SSE
YAOGAN 11 4.2 22:52:02 17° SSE 22:55:35 76° ENE 23:00:09 10° NNW
NOSS 2-2 (C) 4.0 22:55:16 14° S 22:58:15 36° ESE 23:02:20 10° NE
CZ-2C R/B 3.1 22:53:35 10° NNE 22:58:47 44° E 23:02:37 17° SSE
H-2A R/B 4.4 23:02:18 10° ENE 23:03:54 12° NE 23:05:31 10° NNE
Spot 1 4.5 23:02:42 16° S 23:06:13 64° WSW 23:10:54 10° NNW
Cosmos 1455 2.7 23:03:08 10° N 23:06:48 45° ENE 23:09:00 21° SE
Cosmos 1300 3.9 23:04:39 10° NNW 23:08:13 37° W 23:11:27 12° SSW
Meteor 2-19 Rocket 4.5 23:03:41 10° N 23:09:52 79° E 23:14:38 18° SSE
ATLAS 2AS CENTAUR R/B 3.9 23:09:43 10° WSW 23:17:35 56° NW 23:25:34 10° NE
Iridium 75 4.1 23:15:49 10° NNW 23:17:39 41° W 23:17:52 38° WSW
Aureole 3 Rocket 3.9 23:11:17 13° S 23:17:57 77° E 23:23:08 10° NNE
Cosmos 2221 3.5 23:14:20 10° NNW 23:18:26 41° W 23:21:54 13° SSW
RESURS DK-1 2.8 23:17:46 21° S 23:20:04 42° ESE 23:24:00 10° NE
Meteor 1-29 3.3 23:17:04 10° N 23:20:27 63° WNW 23:23:10 15° SSW
Terra 2.6 23:20:16 15° SSW 23:24:01 45° W 23:28:36 10° NNW
Okean 3 Rocket 3.5 23:21:35 17° S 23:24:56 87° W 23:29:21 10° N
Cosmos 1992 Rocket 4.2 23:20:17 10° NNW 23:25:27 63° WSW 23:28:59 20° S
Cosmos 2251 Rocket 4.4 23:21:22 10° SW 23:26:33 51° WNW 23:31:45 10° NNE
COBE Rocket 4.1 23:26:42 10° NNE 23:31:45 60° E 23:35:05 22° S
Cosmos 1328 Rocket 3.8 23:28:09 10° N 23:32:29 59° ENE 23:34:55 25° SSE
SAR-Lupe-4 3.6 23:31:59 28° SSE 23:33:45 73° ENE 23:37:20 10° N
COSMOS 2487 4.1 23:31:18 10° N 23:34:21 26° ENE 23:36:24 16° ESE
Cosmos 2228 Rocket 3.8 23:30:58 10° N 23:35:16 43° ENE 23:37:44 22° SE
Cosmos 1328 4.2 23:32:33 15° SSW 23:35:38 58° WNW 23:39:34 10° N
Cosmos 2315 Rocket 4.3 23:31:49 12° SSW 23:37:47 71° WNW 23:44:11 10° N
Cosmos 1461 3.8 23:33:36 10° SW 23:38:15 60° NW 23:43:01 10° NE
SL-8 R/B 3.6 23:36:10 10° W 23:41:00 79° S 23:45:51 10° E
Cosmos 1743 Rocket 4.4 23:39:41 24° SE 23:41:40 36° E 23:45:45 10° NNE
ADEOS Rocket 3.9 23:36:34 10° NNE 23:42:00 35° E 23:45:35 20° SSE
CZ-2C R/B 4.2 23:41:41 15° SSW 23:46:13 41° W 23:51:38 10° NNW
Meteor 2-10 Rocket 3.9 23:42:32 10° N 23:47:36 55° ENE 23:50:48 23° SE
CZ-4C R/B 4.5 23:45:33 19° ESE 23:47:38 32° ENE 23:51:01 10° N
Cosmos 1441 Rocket 3.1 23:44:14 10° NNW 23:48:03 89° W 23:49:46 31° S
CENTAUR R/B 3.4 23:40:56 10° NW 23:48:39 59° WSW 23:54:31 21° SSE
Cosmos 2184 Rocket 4.0 23:42:42 10° N 23:49:05 86° E 23:53:16 23° S
Meteor 1-11 4.3 23:45:28 17° SSW 23:49:59 83° WNW 23:55:50 10° N
NOSS 2-2 (E) 3.7 23:47:29 10° SW 23:51:27 73° NW 23:56:18 10° NE
SAR-Lupe-1 4.0 23:50:23 32° S 23:51:57 83° WSW 23:55:34 10° NNW
Cosmos 2278 Rocket 3.2 23:46:39 10° SW 23:52:07 47° NW 23:57:38 10° NNE
Spot 4 4.2 23:51:21 23° S 23:54:17 60° W 23:59:07 10° NNW
